TimeCDT,TemperatureF,Dew PointF,Humidity,Sea Level PressureIn,VisibilityMPH,Wind Direction,Wind SpeedMPH,Gust SpeedMPH,PrecipitationIn,Events,Conditions,WindDirDegrees,DateUTC
12:54 AM,61.0,57.0,87,29.41,9.0,East,17.3,23.0,0.11,Rain,Light Rain,100,2011-10-07 05:54:00
1:12 AM,62.6,57.2,82,29.44,10.0,ESE,24.2,33.4,0.00,,Overcast,110,2011-10-07 06:12:00
1:21 AM,60.8,57.2,88,29.44,10.0,ESE,16.1,27.6,0.00,,Overcast,120,2011-10-07 06:21:00
1:54 AM,61.0,57.0,87,29.44,10.0,SE,12.7,21.9,0.00,,Overcast,140,2011-10-07 06:54:00
2:54 AM,60.1,55.9,86,29.43,10.0,SSE,11.5,19.6,N/A,,Mostly Cloudy,150,2011-10-07 07:54:00
3:54 AM,60.1,55.0,83,29.38,10.0,SE,8.1,19.6,N/A,,Clear,130,2011-10-07 08:54:00
4:54 AM,63.0,53.1,70,29.34,10.0,SE,16.1,23.0,N/A,,Clear,130,2011-10-07 09:54:00
5:54 AM,62.1,53.1,72,29.33,10.0,ESE,16.1,-,N/A,,Mostly Cloudy,120,2011-10-07 10:54:00
6:54 AM,62.1,55.9,80,29.34,10.0,SSE,12.7,23.0,N/A,,Overcast,160,2011-10-07 11:54:00
7:54 AM,61.0,55.0,81,29.34,10.0,SSE,11.5,19.6,N/A,,Scattered Clouds,150,2011-10-07 12:54:00
8:54 AM,60.1,51.1,72,29.36,10.0,SSE,16.1,23.0,N/A,,Clear,160,2011-10-07 13:54:00
9:54 AM,59.0,46.0,62,29.35,10.0,South,13.8,-,N/A,,Clear,170,2011-10-07 14:54:00
10:54 AM,60.1,45.0,57,29.33,10.0,SSE,19.6,33.4,N/A,,Clear,150,2011-10-07 15:54:00
11:54 AM,61.0,39.0,44,29.31,10.0,SSE,21.9,33.4,N/A,,Clear,160,2011-10-07 16:54:00
12:54 PM,63.0,37.9,40,29.28,10.0,SSE,19.6,39.1,N/A,,Clear,160,2011-10-07 17:54:00
1:54 PM,60.1,36.0,41,29.27,10.0,South,18.4,28.8,N/A,,Overcast,170,2011-10-07 18:54:00
2:54 PM,60.1,37.0,42,29.27,10.0,South,25.3,36.8,N/A,,Overcast,170,2011-10-07 19:54:00
3:54 PM,57.9,44.1,60,29.29,10.0,South,19.6,26.5,N/A,,Overcast,180,2011-10-07 20:54:00
4:54 PM,57.9,45.0,62,29.30,10.0,South,13.8,21.9,N/A,,Scattered Clouds,190,2011-10-07 21:54:00
5:54 PM,57.9,45.0,62,29.34,10.0,SSW,16.1,21.9,N/A,,Overcast,200,2011-10-07 22:54:00
6:54 PM,57.9,45.0,62,29.37,10.0,SSW,10.4,20.7,N/A,,Overcast,210,2011-10-07 23:54:00
7:54 PM,57.9,46.0,65,29.40,10.0,South,12.7,-,N/A,,Overcast,190,2011-10-08 00:54:00
8:40 PM,57.2,46.4,67,29.41,10.0,South,17.3,24.2,N/A,,Overcast,190,2011-10-08 01:40:00
8:54 PM,59.0,48.0,67,29.42,10.0,SSW,18.4,25.3,N/A,,Overcast,200,2011-10-08 01:54:00
9:54 PM,57.0,46.0,67,29.51,10.0,WSW,24.2,33.4,N/A,,Overcast,240,2011-10-08 02:54:00
10:01 PM,57.2,46.4,67,29.51,10.0,SW,28.8,38.0,N/A,,Overcast,230,2011-10-08 03:01:00
10:54 PM,54.0,46.9,77,29.56,10.0,WSW,15.0,25.3,0.00,,Mostly Cloudy,240,2011-10-08 03:54:00
11:28 PM,53.6,46.4,77,29.57,10.0,West,11.5,27.6,N/A,,Overcast,260,2011-10-08 04:28:00
11:54 PM,53.1,46.0,77,29.60,10.0,WSW,17.3,27.6,0.00,,Mostly Cloudy,240,2011-10-08 04:54:00